| time (UTC) | temp F | wind direction | speed knots | gust knots | rain 1hr in | rain 24hr in | rain mn in | humidity % | barometer mb |
| 20260504110409 | 45 | 239 | 0.9 | 1.7 | 0.00 | 0.00 | 0.00 | 60 | 1021.4 |
| 20260504100354 | 42 | 75 | 0.0 | 0.0 | 0.00 | 0.00 | 0.00 | 66 | 1021.3 |
| 20260504081337 | 42 | 74 | 0.0 | 0.0 | 0.00 | 0.00 | 0.00 | 64 | 1021.2 |
| 20260504080336 | 42 | 74 | 0.0 | 0.0 | 0.00 | 0.00 | 0.00 | 63 | 1021.3 |
| 20260504070332 | 43 | 80 | 0.0 | 0.0 | 0.00 | 0.00 | 0.00 | 62 | 1020.8 |
| 20260504050311 | 43 | 63 | 0.0 | 0.0 | 0.00 | 0.00 | 0.00 | 59 | 1020.5 |
| 20260504045308 | 43 | 63 | 0.0 | 0.0 | 0.00 | 0.00 | 0.00 | 59 | 1020.6 |
| 20260504044303 | 42 | 63 | 0.0 | 0.0 | 0.00 | 0.00 | 0.00 | 61 | 1020.8 |
| 20260504043303 | 41 | 63 | 0.0 | 0.0 | 0.00 | 0.00 | 0.00 | 66 | 1020.6 |
| 20260504042304 | 42 | 63 | 0.0 | 0.0 | 0.00 | 0.00 | 0.00 | 65 | 1020.5 |
| 20260504041300 | 42 | 62 | 0.9 | 0.9 | 0.00 | 0.00 | 0.00 | 60 | 1020.5 |
| 20260504040300 | 43 | 62 | 0.0 | 0.0 | 0.00 | 0.00 | 0.00 | 59 | 1020.6 |
| 20260504035259 | 43 | 62 | 0.9 | 0.9 | 0.00 | 0.00 | 0.00 | 61 | 1020.5 |
| 20260504034254 | 44 | 62 | 0.0 | 0.0 | 0.00 | 0.00 | 0.00 | 58 | 1020.4 |
| 20260504033249 | 44 | 62 | 0.0 | 0.0 | 0.00 | 0.00 | 0.00 | 55 | 1020.4 |
| 20260504032248 | 44 | 62 | 0.0 | 0.0 | 0.00 | 0.00 | 0.00 | 57 | 1020.4 |
| 20260504031249 | 44 | 62 | 0.0 | 0.0 | 0.00 | 0.00 | 0.00 | 55 | 1020.4 |
| 20260504030248 | 46 | 62 | 0.0 | 0.0 | 0.00 | 0.00 | 0.00 | 56 | 1020.3 |
| 20260504025247 | 46 | 62 | 0.0 | 0.0 | 0.00 | 0.00 | 0.00 | 52 | 1020.1 |
| 20260504024246 | 47 | 62 | 0.0 | 0.0 | 0.00 | 0.00 | 0.00 | 50 | 1020.3 |
| 20260504023245 | 48 | 62 | 0.0 | 0.0 | 0.00 | 0.00 | 0.00 | 48 | 1020.3 |
| 20260504022243 | 47 | 62 | 0.0 | 0.0 | 0.00 | 0.00 | 0.00 | 49 | 1020.1 |
| 20260504021244 | 47 | 62 | 0.0 | 0.0 | 0.00 | 0.00 | 0.00 | 50 | 1020.1 |
| 20260504020243 | 47 | 62 | 0.0 | 0.0 | 0.00 | 0.00 | 0.00 | 51 | 1020.3 |
| 20260504015241 | 48 | 62 | 0.0 | 0.0 | 0.00 | 0.00 | 0.00 | 50 | 1020.1 |
| 20260504014240 | 48 | 61 | 0.0 | 0.0 | 0.00 | 0.00 | 0.00 | 48 | 1020.1 |
| 20260504013235 | 49 | 61 | 0.0 | 0.0 | 0.00 | 0.00 | 0.00 | 46 | 1020.1 |
| 20260504012235 | 50 | 59 | 0.0 | 0.0 | 0.00 | 0.00 | 0.00 | 44 | 1020.0 |
| 20260504011234 | 51 | 59 | 0.0 | 0.0 | 0.00 | 0.00 | 0.00 | 43 | 1020.2 |
| 20260504010232 | 51 | 58 | 0.0 | 0.0 | 0.00 | 0.00 | 0.00 | 43 | 1020.2 |
| 20260504005232 | 52 | 60 | 0.0 | 0.9 | 0.00 | 0.00 | 0.00 | 44 | 1020.0 |
| 20260504004232 | 52 | 60 | 0.0 | 1.7 | 0.00 | 0.00 | 0.00 | 42 | 1020.0 |
| 20260504003232 | 52 | 23 | 1.7 | 2.6 | 0.00 | 0.00 | 0.00 | 41 | 1019.7 |
| 20260504002231 | 53 | 54 | 0.0 | 0.0 | 0.00 | 0.00 | 0.00 | 41 | 1019.8 |
| 20260504001231 | 53 | 53 | 0.0 | 0.0 | 0.00 | 0.00 | 0.00 | 38 | 1019.4 |
| 20260504000231 | 54 | 49 | 0.9 | 1.7 | 0.00 | 0.00 | 0.00 | 39 | 1019.3 |
| 20260503235226 | 54 | 50 | 1.7 | 2.6 | 0.00 | 0.00 | 0.00 | 37 | 1019.3 |
| 20260503234222 | 55 | 52 | 0.0 | 1.7 | 0.00 | 0.00 | 0.00 | 40 | 1019.3 |
| 20260503233219 | 55 | 58 | 0.0 | 0.9 | 0.00 | 0.00 | 0.00 | 37 | 1019.2 |
| 20260503232219 | 56 | 55 | 0.9 | 0.9 | 0.00 | 0.00 | 0.00 | 36 | 1019.0 |
| 20260503231214 | 56 | 346 | 2.6 | 2.6 | 0.00 | 0.00 | 0.00 | 33 | 1019.1 |
| 20260503230214 | 56 | 279 | 2.6 | 7.0 | 0.00 | 0.00 | 0.00 | 32 | 1018.8 |
| 20260503225211 | 56 | 341 | 1.7 | 2.6 | 0.00 | 0.00 | 0.00 | 32 | 1018.7 |
| 20260503224206 | 56 | 30 | 1.7 | 5.2 | 0.00 | 0.00 | 0.00 | 32 | 1018.8 |
| 20260503223201 | 57 | 333 | 2.6 | 5.2 | 0.00 | 0.00 | 0.00 | 29 | 1018.6 |
| 20260503222155 | 57 | 34 | 2.6 | 5.2 | 0.00 | 0.00 | 0.00 | 29 | 1018.5 |
| 20260503221150 | 57 | 352 | 2.6 | 3.5 | 0.00 | 0.00 | 0.00 | 30 | 1018.4 |
| 20260503220149 | 57 | 353 | 2.6 | 5.2 | 0.00 | 0.00 | 0.00 | 27 | 1018.4 |
| 20260503215149 | 56 | 56 | 4.3 | 7.8 | 0.00 | 0.00 | 0.00 | 27 | 1018.2 |
| 20260503214149 | 57 | 26 | 2.6 | 7.0 | 0.00 | 0.00 | 0.00 | 26 | 1018.4 |
| 20260503213145 | 58 | 36 | 3.5 | 7.8 | 0.00 | 0.00 | 0.00 | 25 | 1018.6 |
| 20260503212140 | 59 | 269 | 4.3 | 7.8 | 0.00 | 0.00 | 0.00 | 24 | 1018.0 |
| 20260503211138 | 59 | 240 | 2.6 | 6.1 | 0.00 | 0.00 | 0.00 | 24 | 1018.2 |
| 20260503210138 | 59 | 30 | 3.5 | 5.2 | 0.00 | 0.00 | 0.00 | 26 | 1018.4 |
| 20260503205135 | 58 | 328 | 7.0 | 8.7 | 0.00 | 0.00 | 0.00 | 24 | 1018.3 |
| 20260503204135 | 57 | 266 | 3.5 | 6.1 | 0.00 | 0.00 | 0.00 | 27 | 1018.2 |
| 20260503203135 | 59 | 343 | 3.5 | 5.2 | 0.00 | 0.00 | 0.00 | 28 | 1018.2 |
| 20260503202130 | 58 | 325 | 6.1 | 8.7 | 0.00 | 0.00 | 0.00 | 25 | 1018.5 |
| 20260503201125 | 59 | 327 | 7.0 | 7.8 | 0.00 | 0.00 | 0.00 | 27 | 1018.4 |
| 20260503200124 | 59 | 274 | 3.5 | 6.1 | 0.00 | 0.00 | 0.00 | 30 | 1018.4 |
| 20260503195123 | 58 | 261 | 3.5 | 6.1 | 0.00 | 0.00 | 0.00 | 30 | 1018.7 |
| 20260503194121 | 57 | 298 | 1.7 | 7.0 | 0.00 | 0.00 | 0.00 | 30 | 1018.7 |
| 20260503193120 | 57 | 327 | 5.2 | 8.7 | 0.00 | 0.00 | 0.00 | 27 | 1019.1 |
| 20260503192117 | 57 | 326 | 5.2 | 7.8 | 0.00 | 0.00 | 0.00 | 30 | 1018.8 |
| 20260503191117 | 55 | 356 | 2.6 | 7.0 | 0.00 | 0.00 | 0.00 | 29 | 1019.1 |
| 20260503190117 | 54 | 58 | 1.7 | 7.8 | 0.00 | 0.00 | 0.00 | 31 | 1019.3 |
| 20260503185114 | 57 | 162 | 5.2 | 7.0 | 0.00 | 0.00 | 0.00 | 30 | 1019.3 |
| 20260503184112 | 54 | 294 | 2.6 | 8.7 | 0.00 | 0.00 | 0.00 | 35 | 1019.4 |
| 20260503183112 | 53 | 329 | 4.3 | 7.8 | 0.00 | 0.00 | 0.00 | 33 | 1019.3 |
| 20260503182108 | 52 | 34 | 3.5 | 6.1 | 0.00 | 0.00 | 0.00 | 33 | 1019.5 |
| 20260503181107 | 53 | 6 | 0.9 | 6.1 | 0.00 | 0.00 | 0.00 | 33 | 1019.6 |
| 20260503175056 | 54 | 203 | 4.3 | 7.0 | 0.00 | 0.00 | 0.00 | 32 | 1019.8 |
| 20260503174055 | 54 | 296 | 3.5 | 7.8 | 0.00 | 0.00 | 0.00 | 33 | 1020.0 |
| 20260503173053 | 55 | 325 | 5.2 | 7.8 | 0.00 | 0.00 | 0.00 | 33 | 1019.8 |
| 20260503172053 | 53 | 340 | 5.2 | 9.6 | 0.00 | 0.00 | 0.00 | 34 | 1020.1 |
| 20260503171053 | 51 | 269 | 3.5 | 6.1 | 0.00 | 0.00 | 0.00 | 37 | 1020.2 |
| 20260503131019 | 47 | 132 | 2.6 | 3.5 | 0.00 | 0.00 | 0.00 | 50 | 1020.7 |